Location: Casilda
(33.0440°S, 61.1680°W)
Time: 15:39:25
(UTC-03:00)

ISS - Pass Details

Date: 14 June 2021
Orbit: 417 x 422 km, 51.6° (Epoch: 16 June)

Event Time Altitude Azimuth Distance (km) Brightness Sun altitude
Exits shadow 05:54:17 10° 17° (NNE) 1,488 -0.7 -26.7°
Drops below altitude 10° 05:54:24 10° 17° (NNE) 1,529 -0.6 -26.7°
Sets 05:56:32 0° 26° (NNE) 2,360 0.6 -26.2°
